User: anonymous
Location: Zlin
(49.2330°N, 17.6670°E)
Time: 07:46:04
(UTC+02:00)
Language:

ISS - Orbit

View from above orbital plane
View from above orbital plane
View from above satellite
View from above satellite

Ground track
Ground track

The orbit data is extracted from the following two-line orbital elements,

1 25544U 98067A   14212.89740609  .00003954  00000-0  75941-4 0  8083
2 25544 051.6470 237.9674 0006323 315.9344 104.9033 15.50492143898263
Epoch (UTC): 31 July 2014 21:32:15
Eccentricity: 0.0006323
inclination: 51.6470°
perigee height: 411 km
apogee height: 419 km
right ascension of ascending node: 237.9674°
argument of perigee: 315.9344°
revolutions per day: 15.50492143
mean anomaly at epoch: 104.9033°
orbit number at epoch: 89826

The dashed part of the orbit path shows where the satellite is in the earth's shadow,  

DLR